Regional Weather Roundup
Issued by NWS

Home | Current Version | Previous Version | Graphics & Text | Print | Product List | Glossary Off
Versions: 1 2 3 4 5 6 7 8 9 10 11 12 13 14 15 16 17 18 19 20 21 22 23 24 25 26 27 28 29 30 31 32 33 34 35 36 37 38 39 40 41 42 43 44 45 46 47 48 49 50

000
ASUS45 KBOU 211207
RWRCO

WEATHER ROUNDUP FOR COLORADO
NATIONAL WEATHER SERVICE DENVER/BOULDER CO
600 AM MDT TUE OCT 21 2014

NOTE: "FAIR" INDICATES FEW OR NO CLOUDS BELOW 12000 FEET WITH NO
SIGNIFICANT WEATHER AND/OR OBSTRUCTIONS TO VISIBILITY.

COZ001>005-013-030-031-211300-
...NORTHWEST COLORADO...

CITY           SKY/WX    TMP DP  RH WIND       PRES   REMARKS
CRAIG          PTCLDY    35  32  88 SW3       30.11R
HAYDEN         PTCLDY    41  32  70 SE12      30.12R
MEEKER         MOCLDY    41  34  76 CALM      30.12R
MOUNT WERNER   NOT AVBL
STEAMBOAT SPGS CLOUDY    39  35  84 NW3       30.14F
WALDEN         MOCLDY    32  28  86 CALM      30.20R
$$

COZ006>008-011-211300-
...WEST CENTRAL VALLEYS...

CITY           SKY/WX    TMP DP  RH WIND       PRES   REMARKS
GRAND JUNCTION MOCLDY    56  37  49 E15       30.04S
MONTROSE       CLOUDY    51  40  65 CALM      30.13S
EAGLE          CLOUDY    41  36  81 SE3       30.19S
RIFLE          MOCLDY    43  37  79 CALM      30.10R
DELTA          MOCLDY    53  41  65 E3        30.10S
NUCLA          NOT AVBL
$$

COZ017>023-064>068-211300-
...SOUTHWEST COLORADO...

CITY           SKY/WX    TMP DP  RH WIND       PRES   REMARKS
DURANGO        CLOUDY    49  45  86 CALM      30.19F
CORTEZ         PTCLDY    52  42  69 CALM      30.13F
PAGOSA SPRINGS MOCLDY    44  42  95 CALM      30.25R
TELLURIDE      CLOUDY    46  39  77 E8        30.28S
WOLF CREEK PAS FOG       32  32 100 SW9       30.40S VSB<1/4 WCI  24
$$

COZ009-010-012-014-032>034-037-058>063-211300-
...CENTRAL COLORADO...

CITY           SKY/WX    TMP DP  RH WIND       PRES   REMARKS
ASPEN          CLOUDY    41  33  73 CALM      30.19R
BUENA VISTA    CLEAR     35  31  84 NW5       30.24S WCI  31
COPPER MTN     CLEAR     39  28  65 S17       30.39S
BERTHOUD PASS  FAIR      32  30  93 W8        30.43S WCI  25
COTTONWOOD PAS CLEAR     43  32  65 CALM      30.31S
GUNNISON       MOCLDY    36  28  75 CALM      30.26S
KREMMLING      PTCLDY    30  28  93 CALM        N/A
LEADVILLE      CLEAR     28  26  92 CALM      30.30S
MONARCH PASS   PTCLDY    32  30  93 SW14      30.49F WCI  22
SALIDA         CLEAR     42  33  71 CALM      30.30R
SUNLIGHT       CLOUDY    41  34  75 CALM      30.33S
WILKERSON PASS NOT AVBL
$$

COZ069>075-211300-
...SAN LUIS VALLEY/SANGRE DE CRISTO MOUNTAINS...

CITY           SKY/WX    TMP DP  RH WIND       PRES   REMARKS
ALAMOSA        CLEAR     35  31  85 CALM      30.23S
LA VETA PASS   CLEAR     36  34  93 S7        30.31F
SAGUACHE       PTCLDY    37  32  81 NW13      30.25S
$$

COZ035-036-038>040-211300-
...NORTHERN COLORADO FRONT RANGE...

CITY           SKY/WX    TMP DP  RH WIND       PRES   REMARKS
DENVER INTL AP CLEAR     49  36  61 SW9       30.03S
DMNS CITY PARK   N/A     52  36  54 S5        30.04S
AURORA         PTCLDY    53  37  53 S12       30.05S
FRONT RANGE AP NOT AVBL
ERIE MUNI ARPT PTCLDY    41  37  88 S3        30.02S
BOULDER MUN AP PTCLDY    48  41  76 CALM      30.03S
CENTENNIAL     CLEAR     48  36  63 S5        30.06S
BROOMFIELD     CLEAR     50  37  62 NW5       30.05S
FORT COLLINS   CLEAR     45  36  70 SW3       30.03S
LONGMONT       PTCLDY    41  36  82 CALM      30.04S
$$

COZ041-046-047-076>085-087-088-211300-
...PIKES PEAK/PALMER DIVIDE AND SOUTHERN FOOTHILLS...

CITY           SKY/WX    TMP DP  RH WIND       PRES   REMARKS
COLO. SPRINGS  PTCLDY    40  37  89 N8        30.11F
A. F. ACADEMY  CLEAR     36  35  94 N6        30.12F
ELLICOTT       CLEAR     41  40  96 NE6       30.10F
FALCON         CLEAR     40  37  87 NW5       30.14F
FORT CARSON    CLEAR     42  37  82 NW9       30.08F
LIMON          CLEAR     36  36 100 N3        30.09S FOG
MONUMENT HILL  CLEAR     45  34  65 SW7       30.13S
TRINIDAD       CLEAR     50  41  71 W13       30.12R
$$

COZ042>045-048>051-090-091-211300-
...NORTHEAST COLORADO...

CITY           SKY/WX    TMP DP  RH WIND       PRES   REMARKS
GREELEY ARPT   CLEAR     39  30  70 NW6       30.02S
AKRON          CLEAR     50  47  89 S10       30.02S
BURLINGTON     CLEAR     52  49  89 S13       30.06F
WRAY           CLEAR     53  49  87 S5        30.02F
STERLING       CLEAR     45  43  93 SW5       29.99S
HOLYOKE        CLEAR     50  45  81 S8        30.01F
FORT MORGAN    CLEAR     45  41  86 E3        30.01S
$$

COZ086-089-092>099-211300-
...SOUTHEAST COLORADO...

CITY           SKY/WX    TMP DP  RH WIND       PRES   REMARKS
PUEBLO         CLEAR     41  38  89 W5        30.06F
LA JUNTA       PTCLDY    43  42  97 NW5       30.05S FOG
LAMAR          CLEAR     44  43  96 E7        30.04S FOG
SPRINGFIELD      N/A     45  44  97 SW7       30.08S
$$



USA.gov is the U.S. government's official web portal to all federal, state and local government web resources and services.